Weather History for Durant, OK

Change the Weather History Date:

Friday, February 8, 2013

  Actual Average (KADM) Record (KADM)
Temperature  
Mean Temperature 48 °F -  
Max Temperature 60 °F 53 °F 82 °F (1999)
Min Temperature 37 °F 35 °F 24 °F (2003)
Degree Days  
Heating Degree Days 16    
Moisture  
Dew Point 35 °F    
Average Humidity 66    
Maximum Humidity 93    
Minimum Humidity 34    
Precipitation  
Precipitation 0.00 in - - ()
Sea Level Pressure  
Sea Level Pressure 30.19 in    
Wind  
Wind Speed 10 mph (NNE)    
Max Wind Speed 15 mph    
Max Gust Speed 22 mph    
Visibility 10 miles    
Events      
Averages and records for this station are not official NWS values.
T = Trace of Precipitation, MM = Missing Value Source: NWS Daily Summary

Daily Weather History Graph

Daily Weather History Graph

Search for Another Location

Airport:

Trip Planner

Search our weather history database for the weather conditions in past years. The results will help you decide how hot, cold, wet, or windy it might be!

Date:

Astronomy

Feb. 08, 2013 Rise Set
Actual Time 7:16 AM CST 6:03 PM CST
Civil Twilight 6:50 AM CST 6:29 PM CST
Nautical Twilight 6:21 AM CST 6:58 PM CST
Astronomical Twilight 5:52 AM CST 7:28 PM CST
Moon 5:43 AM CST (2/8) 4:39 PM CST (2/8)
Length of Visible Light 11h 38m
Length of Day
10h 46m
Waning Crescent, 3% of the Moon is Illuminated
Feb 8
Waning Crescent
Feb 10
New
Feb 17
First Quarter
Feb 25
Full
Mar 4
Last Quarter

Hourly Weather History & Observations

Time (CST) Temp. Windchill Dew Point Humidity Pressure Visibility Wind Dir Wind Speed Gust Speed Precip Events Conditions
12:15 AM 48.2 °F - 42.8 °F 82% 30.12 in 10.0 mi NNW 10.4 mph - N/A   Clear
12:35 AM 48.2 °F - 42.8 °F 82% 30.13 in 10.0 mi NNW 10.4 mph 18.4 mph N/A   Clear
12:55 AM 46.4 °F 40.4 °F 41.0 °F 81% 30.13 in 10.0 mi NNW 13.8 mph - N/A   Clear
1:15 AM 46.4 °F 40.4 °F 41.0 °F 81% 30.13 in 10.0 mi NNW 13.8 mph 20.7 mph N/A   Clear
1:35 AM 46.4 °F 40.4 °F 41.0 °F 81% 30.14 in 10.0 mi NNW 13.8 mph 19.6 mph N/A   Clear
1:55 AM 46.4 °F 40.4 °F 41.0 °F 81% 30.14 in 10.0 mi NNW 13.8 mph - N/A   Clear
2:15 AM 44.6 °F 38.1 °F 39.2 °F 81% 30.15 in 10.0 mi NNW 13.8 mph - N/A   Clear
2:35 AM 44.6 °F 38.1 °F 39.2 °F 81% 30.15 in 10.0 mi NNW 13.8 mph - N/A   Clear
2:55 AM 44.6 °F 38.1 °F 39.2 °F 81% 30.15 in 10.0 mi NNW 13.8 mph 20.7 mph N/A   Clear
3:15 AM 44.6 °F 37.8 °F 37.4 °F 76% 30.15 in 10.0 mi NNW 15.0 mph 18.4 mph N/A   Clear
3:35 AM 42.8 °F 36.2 °F 37.4 °F 81% 30.16 in 10.0 mi NNW 12.7 mph - N/A   Clear
3:55 AM 42.8 °F 35.8 °F 37.4 °F 81% 30.16 in 10.0 mi NNW 13.8 mph 21.9 mph N/A   Clear
4:15 AM 42.8 °F 35.8 °F 37.4 °F 81% 30.17 in 10.0 mi NNW 13.8 mph - N/A   Clear
4:35 AM 42.8 °F 35.4 °F 37.4 °F 81% 30.17 in 10.0 mi NW 15.0 mph 19.6 mph N/A   Clear
4:55 AM 42.8 °F 35.4 °F 35.6 °F 76% 30.18 in 10.0 mi NNW 15.0 mph - N/A   Clear
5:15 AM 41.0 °F 33.5 °F 35.6 °F 81% 30.18 in 10.0 mi NW 13.8 mph - N/A   Clear
5:55 AM 41.0 °F 33.5 °F 35.6 °F 81% 30.20 in 10.0 mi NNW 13.8 mph 18.4 mph N/A   Clear
6:15 AM 39.2 °F 32.0 °F 35.6 °F 87% 30.21 in 10.0 mi NNW 11.5 mph - N/A   Clear
6:35 AM 39.2 °F 33.0 °F 35.6 °F 87% 30.22 in 10.0 mi West 9.2 mph - N/A   Clear
6:55 AM 37.4 °F 29.8 °F 35.6 °F 93% 30.23 in 10.0 mi NW 11.5 mph - N/A   Clear
7:15 AM 37.4 °F 29.8 °F 35.6 °F 93% 30.23 in 10.0 mi WNW 11.5 mph - N/A   Clear
7:35 AM 37.4 °F 30.3 °F 35.6 °F 93% 30.24 in 7.0 mi NNW 10.4 mph - N/A   Clear
7:55 AM 37.4 °F 29.8 °F 35.6 °F 93% 30.24 in 7.0 mi NNW 11.5 mph - N/A   Clear
8:15 AM 39.2 °F 31.6 °F 35.6 °F 87% 30.25 in 10.0 mi NNE 12.7 mph - N/A   Clear
8:35 AM 41.0 °F 34.7 °F 35.6 °F 81% 30.25 in 10.0 mi North 10.4 mph 17.3 mph N/A   Clear
8:55 AM 41.0 °F 33.5 °F 35.6 °F 81% 30.26 in 10.0 mi North 13.8 mph - N/A   Clear
9:15 AM 42.8 °F 38.0 °F 35.6 °F 76% 30.27 in 10.0 mi NNE 8.1 mph - N/A   Clear
9:35 AM 42.8 °F 38.0 °F 35.6 °F 76% 30.27 in 10.0 mi North 8.1 mph - N/A   Clear
9:55 AM 44.6 °F 40.7 °F 35.6 °F 71% 30.29 in 10.0 mi NNW 6.9 mph - N/A   Clear
10:15 AM 46.4 °F 42.9 °F 35.6 °F 66% 30.29 in 10.0 mi NE 6.9 mph - N/A   Clear
10:35 AM 46.4 °F 42.4 °F 37.4 °F 71% 30.29 in 7.0 mi North 8.1 mph - N/A   Clear
10:55 AM 48.2 °F - 37.4 °F 66% 30.30 in 10.0 mi NNW 5.8 mph - N/A   Clear
11:15 AM 50.0 °F - 37.4 °F 62% 30.28 in 10.0 mi NNW 9.2 mph - N/A   Clear
11:35 AM 51.8 °F - 37.4 °F 58% 30.27 in 10.0 mi North 10.4 mph - N/A   Clear
11:55 AM 51.8 °F - 35.6 °F 54% 30.26 in 10.0 mi ENE 10.4 mph 18.4 mph N/A   Clear
12:15 PM 53.6 °F - 37.4 °F 54% 30.26 in 10.0 mi NE 10.4 mph - N/A   Clear
12:35 PM 53.6 °F - 35.6 °F 51% 30.24 in 10.0 mi NE 12.7 mph - N/A   Clear
12:55 PM 55.4 °F - 35.6 °F 47% 30.23 in 10.0 mi NE 10.4 mph 18.4 mph N/A   Clear
1:15 PM 55.4 °F - 33.8 °F 44% 30.23 in 10.0 mi ENE 8.1 mph - N/A   Clear
1:35 PM 59.0 °F - 33.8 °F 39% 30.22 in 10.0 mi ENE 5.8 mph - N/A   Clear
1:55 PM 59.0 °F - 32.0 °F 36% 30.21 in 10.0 mi ENE 6.9 mph - N/A   Clear
2:15 PM 59.0 °F - 32.0 °F 36% 30.20 in 10.0 mi NNE 6.9 mph - N/A   Clear
2:35 PM 59.0 °F - 32.0 °F 36% 30.20 in 10.0 mi ENE 4.6 mph - N/A   Clear
2:55 PM 57.2 °F - 32.0 °F 38% 30.20 in 10.0 mi NE 4.6 mph - N/A   Clear
3:15 PM 60.8 °F - 33.8 °F 36% 30.18 in 10.0 mi NE 4.6 mph - N/A   Clear
3:35 PM 60.8 °F - 33.8 °F 36% 30.16 in 10.0 mi NNE 11.5 mph - N/A   Clear
3:55 PM 59.0 °F - 32.0 °F 36% 30.17 in 10.0 mi East 6.9 mph - N/A   Clear
4:15 PM 60.8 °F - 32.0 °F 34% 30.18 in 10.0 mi ENE 4.6 mph - N/A   Clear
4:35 PM 59.0 °F - 32.0 °F 36% 30.18 in 10.0 mi East 3.5 mph - N/A   Clear
4:55 PM 60.8 °F - 32.0 °F 34% 30.18 in 10.0 mi ENE 4.6 mph - N/A   Clear
5:15 PM 59.0 °F - 32.0 °F 36% 30.18 in 10.0 mi Calm Calm - N/A   Clear
5:35 PM 57.2 °F - 33.8 °F 41% 30.17 in 10.0 mi ENE 3.5 mph - N/A   Clear
5:55 PM 53.6 °F - 33.8 °F 47% 30.18 in 10.0 mi ESE 3.5 mph - N/A   Clear
6:15 PM 51.8 °F - 33.8 °F 50% 30.18 in 10.0 mi Calm Calm - N/A   Clear
6:35 PM 51.8 °F - 32.0 °F 47% 30.17 in 10.0 mi ESE 5.8 mph - N/A   Clear
6:55 PM 46.4 °F 44.3 °F 33.8 °F 62% 30.17 in 10.0 mi East 4.6 mph - N/A   Clear
7:15 PM 46.4 °F 44.3 °F 33.8 °F 62% 30.17 in 10.0 mi East 4.6 mph - N/A   Clear
7:35 PM 46.4 °F - 32.0 °F 57% 30.17 in 10.0 mi Calm Calm - N/A   Clear
7:55 PM 46.4 °F 44.3 °F 33.8 °F 62% 30.17 in 10.0 mi East 4.6 mph - N/A   Clear
8:15 PM 44.6 °F 38.8 °F 33.8 °F 66% 30.16 in 10.0 mi NE 11.5 mph - N/A   Clear
8:35 PM 44.6 °F 41.4 °F 33.8 °F 66% 30.17 in 10.0 mi NE 5.8 mph - N/A   Clear
8:55 PM 44.6 °F 43.1 °F 33.8 °F 66% 30.17 in 10.0 mi NE 3.5 mph - N/A   Clear
9:15 PM 44.6 °F - 33.8 °F 66% 30.17 in 10.0 mi Calm Calm - N/A   Clear
9:35 PM 44.6 °F 42.2 °F 35.6 °F 71% 30.16 in 10.0 mi NNE 4.6 mph - N/A   Clear
9:55 PM 44.6 °F 43.1 °F 33.8 °F 66% 30.17 in 10.0 mi NE 3.5 mph - N/A   Clear
10:15 PM 44.6 °F 43.1 °F 33.8 °F 66% 30.17 in 10.0 mi ENE 3.5 mph - N/A   Clear
10:35 PM 42.8 °F 41.1 °F 33.8 °F 70% 30.16 in 10.0 mi East 3.5 mph - N/A   Clear
10:55 PM 42.8 °F - 33.8 °F 70% 30.17 in 10.0 mi Calm Calm - N/A   Clear
11:15 PM 41.0 °F 38.0 °F 33.8 °F 76% 30.16 in 10.0 mi SE 4.6 mph - N/A   Clear
11:35 PM 41.0 °F 36.4 °F 33.8 °F 76% 30.16 in 10.0 mi ESE 6.9 mph - N/A   Clear
11:55 PM 41.0 °F 37.1 °F 33.8 °F 76% 30.15 in 10.0 mi ESE 5.8 mph - N/A   Clear